Regional Weather Roundup
Issued by NWS Bismarck, ND

Home | Current Version | Previous Version | Text Only | Print | Product List | Glossary Off
Versions: 1 2 3 4 5 6 7 8 9 10 11 12 13 14 15 16 17 18 19 20 21 22 23 24 25 26 27 28 29 30 31 32 33 34 35 36 37 38 39 40 41 42 43 44 45 46 47 48 49 50

000
ASUS43 KBIS 010710
RWRBIS

NWR BROADCAST TEXT
NATIONAL WEATHER SERVICE BISMARCK ND
200 AM CDT WED JUN 01 2016

NOTE: "FAIR" INDICATES FEW OR NO CLOUDS BELOW 12,000 FEET WITH NO
SIGNIFICANT WEATHER AND/OR OBSTRUCTIONS TO VISIBILITY.


CITY           SKY/WX    TMP DP  RH WIND       PRES   REMARKS
WILLISTON      CLOUDY    50  44  80 NW13      29.98S
MINOT          LGT RAIN  49  46  90 NW22G30   29.85R FOG
MINOT AFB      DRIZZLE   46  45  93 NW22      29.83S
BISMARCK       CLOUDY    51  45  79 NW16G26   29.86R
DICKINSON      CLOUDY    47  45  93 NW14      29.94R
GARRISON         N/A     49  45  86 NW14      29.86R
HETTINGER ARPT CLEAR     47  45  93 W15       29.98S
JAMESTOWN      CLOUDY    53  51  93 W17       29.71R
BEACH          PTSUNNY   48  48 100 NW14      30.04S
CARRINGTON     CLOUDY    52  50  93 W25G32    29.72R
LINTON           N/A     50  48  93 NW25G32     N/A
MANDAN         CLOUDY    48  46  93 NW18      29.87R
OAKES            N/A    N/A N/A N/A MISG        N/A
RUGBY          LGT RAIN  48  48 100 NW23G29   29.73S
STANLEY        CLOUDY    46  46 100 NW17G23   29.93R
WATFORD CITY   CLOUDY    48  45  87 NW12      29.97R
$$

CITY           SKY/WX    TMP DP  RH WIND       PRES   REMARKS
GRAND FORKS    RAIN      52  50  93 W12       29.60F
GRAND FORKS AF LGT RAIN  52  52  98 NW9       29.62S
DEVILS LAKE    CLOUDY    54  52  93 NW17      29.67S
FARGO          PTCLDY    54  51  90 SW13      29.66S
CAVALIER       CLOUDY    57  55  94 E6        29.63F
GRAFTON        DRIZZLE   55  54  94 NW10      29.62F
GWINNER        CLOUDY    55  52  88 W20       29.73R
LANGDON        FAIR      50  50 100 N8        29.66S
ROLLA          RAIN      46  46 100 N24       29.73R
WALHALLA       FAIR      54  50  87 W3        29.64F
$$

CITY           SKY/WX    TMP DP  RH WIND       PRES   REMARKS
ABERDEEN       MOCLDY    55  46  71 W17       29.82R
MOBRIDGE       CLOUDY    53  45  74 NW14G23   29.88S
BUFFALO          N/A     48  44  86 NW16      29.96S
RAPID CITY     CLEAR     43  38  82 W8        30.09S
GLASGOW        CLEAR     49  45  86 NW6       30.05S
SIDNEY         LGT RAIN  51  48  89 NW10      30.01R
WOLF POINT     MOCLDY    50  47  89 N6        30.04S
GLENDIVE       PTCLDY    48  46  93 NW12      30.06R
MILES CITY       N/A     49  44  83 W7        30.08S
BAKER          CLOUDY    48  47  96 W12       30.04S
$$

CITY           SKY/WX    TMP DP  RH WIND       PRES   REMARKS
BILLINGS       PTCLDY    52  38  58 S5        30.15S
GREAT FALLS    CLEAR     46  36  68 S8        30.11F
REGINA         MOCLDY    45  45 100 NW3       30.02F
ESTEVAN        CLOUDY    45  43  93 NW17      29.95S
$$





USA.gov is the U.S. government's official web portal to all federal, state and local government web resources and services.